Temp
2 1 1 1 1 0 0 0 -0 -0 -0 -0 -0 0 0 1 1 1 1 1 1 1 1 1 1 1 1 1 1 1 1 1 1 1 1 2 2 2 1 2 1 1 1
1 1 1 1 0 -0 -1 -1 -1 -1 -1 -1 -1 -1 -0 0 0 0 0 0 1 1 0 0 1 1 1 0 0 0 1 1 1 1 1 1 1 1 1 2 1 1 1
1 1 0 -0 -0 -1 -1 -1 -1 -2 -1 -1 -1 -1 -1 -1 -1 -1 -1 -1 -1 -1 -1 -1 -1 -0 0 0 0 -0 -0 -0 -0 0 1 1 0 0 1 1 1 1 1
0 0 -1 -1 -0 -1 -1 -2 -1 -1 -2 -2 -2 -2 -2 -2 -2 -2 -2 -2 -3 -3 -2 -2 -2 -1 -1 -1 -0 -0 -1 -1 -1 -1 -1 -0 1 0 1 1 0 1 1
-0 -0 -0 -1 -1 -2 -1 -1 -2 -2 -2 -2 -2 -2 -2 -2 -3 -3 -3 -3 -3 -3 -3 -3 -3 -3 -2 -2 -1 -1 -1 -1 -1 -2 -1 -1 -1 -1 -1 -0 -0 0 1
-0 -1 -1 -2 -2 -2 -2 -2 -2 -2 -2 -2 -2 -2 -2 -3 -4 -4 -4 -4 -4 -4 -4 -4 -4 -3 -4 -3 -3 -2 -2 -2 -2 -2 -2 -2 -1 -2 -1 -1 -1 -0 0
-1 -2 -2 -2 -2 -2 -2 -2 -2 -2 -3 -3 -3 -4 -4 -4 -4 -5 -5 -5 -5 -5 -5 -5 -5 -5 -4 -4 -4 -4 -3 -3 -3 -3 -2 -3 -3 -2 -2 -2 -1 -1 -0
-1 -1 -1 -2 -2 -2 -3 -3 -3 -3 -3 -4 -4 -5 -5 -6 -6 -6 -6 -7 -7 -7 -7 -7 -7 -6 -6 -6 -5 -5 -5 -4 -4 -4 -4 -3 -3 -3 -2 -2 -3 -2 -1
-1 -1 -2 -3 -3 -3 -3 -3 -4 -5 -5 -6 -6 -7 -8 -8 -8 -8 -8 -8 -8 -8 -7 -7 -7 -7 -7 -7 -7 -6 -6 -5 -5 -5 -4 -4 -4 -4 -3 -2 -3 -3 -2
-2 -2 -3 -3 -3 -4 -5 -5 -6 -7 -8 -8 -8 -9 -10 -10 -10 -10 -9 -9 -9 -9 -9 -9 -9 -9 -8 -8 -8 -7 -7 -6 -6 -5 -5 -5 -5 -4 -4 -4 -3 -3 -3
-3 -4 -4 -5 -5 -6 -7 -7 -8 -9 -9 -9 -10 -10 -11 -11 -11 -11 -10 -10 -10 -10 -10 -10 -10 -10 -10 -11 -10 -10 -9 -8 -7 -6 -6 -6 -5 -5 -5 -4 -4 -3 -3
-4 -5 -5 -6 -6 -7 -7 -8 -9 -11 -10 -10 -11 -11 -11 -12 -11 -12 -11 -11 -10 -10 -11 -11 -11 -12 -12 -12 -12 -12 -11 -11 -10 -9 -7 -6 -6 -5 -6 -6 -5 -5 -4
-5 -5 -6 -7 -7 -8 -8 -9 -10 -11 -11 -11 -11 -12 -12 -12 -12 -13 -13 -13 -13 -12 -12 -13 -13 -13 -14 -13 -13 -13 -13 -12 -12 -11 -10 -9 -8 -6 -6 -6 -6 -5 -5
-6 -7 -7 -7 -8 -8 -9 -10 -11 -11 -12 -12 -12 -13 -13 -13 -14 -14 -14 -14 -14 -14 -14 -13 -13 -14 -14 -14 -14 -14 -14 -13 -13 -12 -12 -11 -11 -9 -8 -7 -6 -6 -6
-7 -7 -7 -8 -9 -9 -10 -12 -12 -13 -13 -13 -13 -14 -14 -14 -14 -14 -15 -15 -16 -15 -14 -14 -14 -14 -14 -14 -14 -15 -14 -14 -14 -13 -13 -12 -12 -11 -10 -10 -9 -8 -7
-7 -8 -8 -9 -10 -11 -12 -13 -13 -13 -14 -14 -14 -14 -14 -14 -15 -15 -15 -16 -16 -16 -16 -15 -15 -15 -15 -15 -15 -15 -15 -15 -14 -14 -13 -13 -12 -11 -11 -10 -11 -10 -8
-8 -9 -9 -10 -11 -12 -12 -13 -14 -14 -14 -14 -15 -15 -15 -15 -15 -16 -16 -16 -16 -17 -17 -15 -16 -15 -15 -15 -15 -16 -16 -15 -15 -14 -14 -14 -13 -12 -12 -11 -11 -11 -10
-9 -10 -10 -11 -12 -12 -13 -14 -14 -14 -15 -15 -15 -15 -15 -15 -15 -16 -16 -16 -16 -17 -17 -16 -16 -16 -16 -16 -16 -16 -17 -16 -16 -15 -15 -14 -13 -13 -13 -12 -12 -11 -11
-10 -10 -11 -12 -12 -14 -14 -15 -15 -15 -15 -15 -15 -15 -15 -15 -16 -16 -16 -16 -17 -17 -17 -17 -17 -17 -17 -17 -17 -18 -17 -17 -16 -16 -15 -15 -14 -13 -13 -13 -12 -12 -11
-11 -11 -12 -13 -13 -14 -15 -15 -15 -15 -15 -16 -15 -16 -16 -16 -16 -16 -16 -16 -17 -17 -18 -18 -18 -18 -18 -18 -18 -18 -18 -18 -18 -16 -16 -16 -15 -14 -13 -13 -13 -12 -11
-12 -12 -13 -13 -14 -14 -15 -15 -15 -16 -16 -16 -16 -16 -16 -16 -16 -16 -16 -17 -17 -17 -18 -18 -19 -19 -19 -19 -20 -19 -19 -19 -18 -17 -17 -16 -15 -15 -14 -13 -13 -12 -12
-12 -13 -13 -14 -14 -15 -15 -16 -16 -16 -16 -16 -16 -16 -16 -16 -16 -16 -17 -17 -17 -18 -18 -19 -20 -21 -20 -20 -20 -20 -19 -19 -19 -19 -18 -17 -16 -15 -14 -14 -13 -12 -12
-13 -13 -14 -14 -15 -15 -16 -16 -16 -16 -16 -16 -16 -16 -16 -16 -16 -17 -17 -17 -18 -19 -19 -20 -20 -21 -21 -21 -21 -20 -20 -20 -19 -19 -18 -17 -17 -16 -15 -14 -14 -13 -12
-13 -14 -14 -15 -15 -16 -16 -16 -16 -16 -16 -16 -16 -16 -16 -16 -17 -17 -17 -17 -18 -19 -19 -20 -21 -21 -21 -21 -21 -21 -20 -20 -20 -19 -19 -18 -17 -17 -16 -15 -14 -13 -14
-14 -14 -14 -15 -15 -16 -16 -16 -16 -16 -16 -17 -17 -17 -17 -17 -17 -17 -17 -18 -18 -19 -19 -20 -21 -21 -21 -21 -21 -21 -21 -21 -20 -19 -19 -18 -17 -17 -16 -16 -15 -14 -14
-14 -15 -15 -15 -16 -16 -16 -16 -16 -16 -17 -17 -17 -17 -17 -17 -17 -18 -18 -18 -18 -19 -19 -20 -20 -20 -21 -20 -21 -20 -21 -21 -21 -20 -19 -18 -18 -17 -17 -16 -16 -16 -15
Height
3184 3183 3182 3180 3178 3176 3174 3171 3167 3165 3162 3159 3157 3154 3152 3150 3149 3149 3146 3144 3142 3141 3139 3137 3135 3134 3134 3132 3131 3130 3130 3131 3130 3128 3128 3128 3130 3131 3132 3133 3134 3136 3137
3181 3180 3178 3176 3173 3171 3168 3164 3161 3158 3156 3153 3150 3147 3144 3142 3140 3140 3139 3136 3135 3133 3131 3130 3129 3127 3125 3125 3124 3123 3122 3121 3123 3123 3121 3122 3123 3124 3125 3126 3129 3131 3132
3177 3175 3173 3170 3168 3164 3160 3157 3154 3151 3148 3145 3142 3139 3137 3133 3130 3128 3126 3125 3124 3123 3121 3120 3119 3118 3117 3116 3115 3115 3114 3113 3113 3113 3116 3113 3114 3117 3117 3119 3121 3124 3125
3173 3170 3167 3164 3161 3158 3155 3152 3148 3143 3139 3135 3132 3129 3127 3124 3121 3117 3115 3113 3112 3110 3110 3109 3108 3108 3107 3106 3106 3104 3105 3104 3104 3104 3104 3106 3105 3105 3107 3110 3115 3116 3118
3167 3165 3162 3159 3155 3152 3148 3144 3139 3134 3129 3126 3122 3119 3117 3114 3111 3107 3105 3102 3100 3098 3096 3096 3095 3095 3095 3095 3094 3094 3094 3094 3095 3094 3096 3097 3099 3100 3100 3103 3106 3108 3110
3162 3159 3156 3152 3147 3143 3139 3134 3129 3124 3119 3115 3112 3109 3106 3103 3101 3098 3096 3092 3089 3087 3084 3082 3081 3080 3080 3081 3081 3081 3082 3082 3083 3085 3085 3087 3089 3092 3093 3094 3095 3097 3100
3156 3152 3147 3143 3139 3135 3129 3125 3119 3114 3108 3103 3098 3095 3093 3091 3090 3086 3083 3079 3076 3074 3071 3069 3067 3065 3065 3065 3065 3066 3068 3069 3070 3072 3074 3075 3076 3080 3083 3082 3083 3086 3089
3148 3143 3139 3134 3128 3121 3115 3110 3106 3101 3097 3092 3088 3083 3080 3079 3075 3074 3069 3066 3062 3060 3057 3055 3051 3049 3048 3048 3050 3051 3052 3053 3056 3058 3060 3062 3064 3066 3070 3072 3073 3075 3080
3138 3134 3128 3122 3116 3111 3106 3100 3095 3090 3086 3082 3078 3074 3067 3064 3059 3061 3060 3056 3051 3047 3045 3041 3038 3035 3033 3031 3032 3034 3037 3038 3040 3043 3046 3048 3051 3054 3056 3060 3063 3065 3068
3128 3123 3118 3113 3107 3101 3095 3090 3085 3080 3075 3071 3068 3064 3059 3053 3047 3041 3042 3037 3036 3035 3030 3027 3024 3021 3018 3016 3015 3015 3018 3021 3023 3026 3029 3033 3036 3040 3044 3048 3051 3054 3058
3118 3111 3106 3101 3095 3089 3084 3078 3073 3067 3062 3057 3054 3051 3047 3043 3037 3031 3027 3027 3024 3019 3013 3010 3008 3005 3002 3001 2999 2998 2999 3002 3005 3009 3012 3015 3020 3025 3030 3035 3039 3043 3048
3108 3101 3095 3090 3085 3079 3072 3065 3059 3055 3051 3047 3044 3039 3035 3031 3027 3020 3015 3012 3012 3011 3004 2999 2996 2994 2991 2989 2988 2986 2985 2987 2989 2991 2995 2999 3003 3010 3016 3021 3025 3030 3036
3099 3092 3085 3079 3072 3066 3061 3055 3050 3046 3043 3040 3035 3030 3026 3021 3016 3011 3006 3003 3000 3000 2996 2991 2988 2985 2982 2978 2977 2976 2975 2975 2976 2978 2982 2985 2988 2993 3000 3006 3012 3016 3022
3087 3081 3075 3069 3063 3058 3053 3049 3042 3039 3036 3031 3026 3021 3017 3013 3008 3004 3000 2994 2990 2986 2984 2980 2978 2974 2973 2969 2966 2967 2966 2966 2966 2969 2971 2973 2975 2979 2984 2990 2996 3002 3008
3079 3073 3067 3061 3055 3049 3043 3039 3036 3031 3027 3022 3018 3014 3009 3006 3001 2997 2992 2987 2981 2973 2971 2971 2965 2964 2959 2958 2957 2956 2956 2957 2957 2958 2960 2961 2963 2966 2970 2976 2982 2988 2994
3070 3064 3057 3051 3044 3039 3034 3030 3026 3021 3018 3014 3011 3007 3002 2997 2993 2989 2984 2979 2974 2967 2956 2959 2953 2951 2947 2945 2944 2945 2947 2947 2948 2949 2951 2953 2955 2957 2960 2965 2970 2977 2982
3059 3053 3046 3040 3035 3030 3026 3021 3018 3015 3011 3008 3004 2999 2995 2990 2985 2981 2975 2969 2963 2957 2948 2946 2941 2938 2936 2932 2932 2933 2936 2938 2939 2940 2942 2945 2946 2949 2952 2956 2960 2964 2970
3049 3043 3036 3031 3025 3021 3017 3014 3012 3009 3006 3002 2997 2991 2987 2982 2977 2971 2965 2958 2952 2945 2938 2934 2932 2928 2926 2923 2921 2923 2926 2928 2930 2932 2934 2936 2939 2941 2944 2948 2951 2955 2960
3041 3034 3028 3023 3017 3013 3010 3007 3005 3003 2999 2995 2989 2984 2979 2973 2968 2962 2955 2948 2941 2935 2929 2924 2921 2918 2915 2914 2912 2913 2916 2919 2920 2923 2925 2928 2930 2933 2937 2940 2943 2947 2951
3032 3025 3019 3013 3009 3006 3004 3002 2999 2996 2992 2987 2982 2976 2971 2965 2958 2952 2944 2937 2931 2925 2920 2915 2911 2908 2907 2905 2904 2905 2909 2911 2912 2914 2917 2919 2922 2925 2929 2934 2937 2939 2943
3024 3017 3011 3006 3003 3000 2998 2996 2993 2989 2985 2979 2974 2968 2963 2957 2950 2942 2934 2928 2922 2916 2911 2906 2903 2900 2899 2898 2898 2898 2899 2903 2903 2907 2909 2911 2914 2917 2922 2925 2930 2933 2935
3016 3010 3005 3001 2997 2995 2992 2989 2986 2982 2977 2971 2966 2961 2955 2948 2940 2933 2927 2921 2915 2908 2904 2899 2896 2893 2892 2891 2891 2892 2893 2895 2897 2897 2901 2904 2906 2910 2914 2919 2924 2927 2929
3009 3004 2999 2995 2991 2988 2985 2982 2979 2975 2970 2964 2958 2953 2947 2940 2931 2924 2919 2913 2908 2903 2897 2892 2888 2887 2885 2885 2884 2885 2886 2888 2890 2891 2893 2896 2899 2903 2907 2912 2918 2923 2925
3003 2998 2993 2989 2986 2982 2979 2976 2972 2968 2963 2957 2952 2946 2939 2932 2924 2918 2912 2907 2901 2896 2890 2885 2882 2879 2878 2877 2877 2877 2878 2880 2881 2884 2886 2888 2893 2897 2900 2905 2911 2918 2921
2995 2991 2987 2983 2980 2977 2973 2970 2966 2962 2957 2952 2946 2939 2932 2926 2919 2912 2907 2901 2896 2890 2884 2878 2874 2872 2871 2870 2870 2870 2871 2873 2875 2877 2879 2881 2886 2890 2893 2898 2903 2911 2916
2989 2985 2981 2978 2975 2971 2968 2964 2960 2955 2951 2946 2940 2933 2927 2920 2913 2908 2902 2897 2891 2885 2878 2873 2869 2866 2865 2865 2864 2863 2865 2867 2870 2871 2872 2876 2880 2884 2888 2892 2896 2903 2909
Wind_Speed
14 17 19 21 23 27 30 32 30 31 36 38 37 36 37 34 33 32 33 34 34 32 32 34 36 35 33 34 34 34 35 34 34 35 35 33 32 32 30 28 27 26 27
16 20 22 24 28 30 34 33 33 32 41 42 43 43 42 41 40 39 38 39 38 38 37 37 37 38 39 38 37 37 37 38 37 36 36 36 35 33 32 31 29 29 30
16 21 25 27 31 33 35 38 38 41 46 46 46 46 45 45 47 46 43 40 39 39 39 38 39 39 40 41 42 40 40 39 39 40 38 40 38 37 36 34 33 32 31
23 25 28 32 38 40 37 40 45 47 49 50 50 51 50 50 49 47 45 43 41 39 39 38 39 41 42 43 45 46 43 44 41 40 40 39 41 41 40 39 38 35 35
27 31 34 34 37 39 43 45 47 50 51 51 53 54 53 51 50 48 47 47 46 46 46 45 44 43 44 45 47 48 49 46 45 43 41 40 39 42 42 41 41 40 38
32 32 34 37 38 40 44 47 49 52 53 56 56 55 49 47 48 48 47 47 48 49 50 51 51 51 49 48 49 50 50 51 49 47 45 42 43 40 42 43 43 42 42
29 31 34 37 39 43 45 48 49 51 51 53 53 53 52 52 52 50 51 50 51 52 53 52 51 51 52 52 52 53 54 53 53 52 50 47 44 45 40 41 45 44 43
35 38 40 43 47 49 51 53 52 52 54 54 54 55 56 56 56 52 51 51 54 52 50 50 51 53 53 54 54 53 55 58 56 55 53 51 49 46 46 43 42 44 44
40 41 44 47 50 52 53 54 55 54 53 52 50 49 50 52 52 49 45 43 44 45 46 48 51 54 54 55 56 56 55 56 58 56 56 55 53 50 47 47 46 44 44
43 45 47 48 49 50 50 50 49 47 46 45 44 45 35 38 42 45 44 43 40 41 44 45 46 46 46 49 53 56 58 60 56 57 56 55 55 53 52 49 49 49 44
45 46 47 48 47 47 46 45 43 43 42 41 41 39 41 39 41 44 44 42 44 46 47 48 47 45 41 38 39 50 53 55 56 55 56 54 55 54 53 54 53 52 46
44 46 47 47 45 44 44 44 41 40 44 45 44 48 35 33 36 41 44 45 43 43 45 44 43 41 37 33 34 34 36 39 45 48 51 56 54 55 55 55 57 55 52
43 44 45 44 44 44 42 43 38 43 45 43 40 35 37 36 37 38 39 39 40 39 40 42 41 38 37 35 32 31 32 34 35 36 36 40 52 54 55 57 57 56 54
43 43 43 44 44 43 42 34 43 43 43 40 36 31 34 36 34 35 38 40 42 42 41 43 42 39 35 33 35 31 31 32 34 32 33 35 37 46 51 56 57 60 60
43 42 42 42 41 40 38 37 40 34 28 29 31 33 34 32 34 36 36 38 41 47 47 43 44 41 40 35 35 32 31 32 32 33 32 34 35 37 42 41 44 56 56
42 42 42 40 38 37 34 32 30 29 30 32 33 36 36 35 35 35 37 40 42 46 51 45 45 42 40 38 34 33 31 33 33 34 33 32 32 34 35 40 35 41 56
43 41 41 39 36 35 31 28 30 30 33 31 35 36 35 35 35 37 39 42 45 46 49 43 40 37 34 36 33 30 31 30 34 32 32 33 33 32 31 34 39 39 47
43 41 40 36 34 31 27 27 27 29 32 33 37 37 36 36 37 40 42 45 46 44 42 39 36 36 32 30 31 29 25 29 30 30 32 34 34 31 29 29 29 32 37
43 40 37 34 30 26 25 26 25 29 32 36 36 36 36 37 38 40 44 45 42 39 39 38 38 36 32 27 27 27 26 23 30 35 29 32 35 33 29 27 28 28 33
43 40 36 31 27 26 25 25 28 29 32 34 36 35 36 37 40 42 43 39 37 38 36 35 33 31 28 25 24 24 27 29 29 31 37 30 31 34 32 27 24 27 28
40 37 33 29 25 22 22 27 28 30 32 35 34 34 34 36 39 41 37 35 36 35 33 31 29 27 23 22 19 20 21 27 29 33 31 33 33 31 31 31 24 19 24
38 35 30 26 22 21 26 26 28 31 34 33 33 33 34 37 39 36 31 32 32 31 29 28 25 25 21 19 21 23 23 23 23 28 32 35 37 35 31 29 21 14 30
36 33 29 26 24 24 24 28 30 32 31 31 32 33 34 36 38 34 31 30 29 28 27 27 27 25 24 20 20 27 26 27 26 26 27 32 34 36 35 31 22 17 25
33 30 27 25 24 23 25 28 28 28 29 29 31 33 34 35 36 31 30 29 27 27 27 25 24 24 24 22 20 20 24 32 32 30 27 29 31 32 32 33 29 22 15
30 27 25 22 23 25 26 26 26 27 27 27 30 32 34 34 32 28 28 27 29 27 26 24 23 21 20 19 19 20 18 20 25 26 28 29 27 29 31 31 31 28 30
26 24 23 23 24 25 26 26 27 26 25 27 29 30 32 33 29 25 25 26 27 26 25 21 18 17 16 15 16 18 20 21 14 16 19 23 24 25 25 28 30 30 29
Wind_Direction
296 299 309 309 311 313 309 309 313 311 321 323 320 320 319 315 313 309 304 299 296 292 289 289 287 285 283 282 276 272 274 268 262 261 257 252 249 249 249 248 247 246 243
289 299 304 306 310 306 309 306 310 308 316 316 315 315 314 312 308 305 302 300 295 290 285 282 281 281 281 279 275 272 268 271 269 261 262 258 252 251 250 248 245 243 242
297 295 298 303 306 302 311 308 310 308 310 310 310 309 309 307 304 301 298 295 291 286 281 280 278 276 274 274 274 272 269 266 266 269 263 261 259 252 249 249 247 242 241
294 299 306 304 309 307 301 303 303 305 305 306 307 306 305 304 302 299 296 294 291 286 282 277 273 271 270 269 268 270 269 267 263 260 265 264 260 260 253 249 247 243 239
298 303 306 307 303 299 299 301 302 301 301 300 300 299 300 300 298 295 292 290 289 287 285 282 278 273 269 267 265 265 267 265 263 261 256 257 259 257 255 249 246 244 240
305 307 300 297 299 299 299 299 299 297 296 295 296 296 296 299 296 291 288 286 285 284 283 282 282 279 274 268 264 263 262 263 262 258 258 255 252 254 256 252 247 244 243
302 297 295 296 297 298 297 297 299 298 299 302 301 298 297 297 294 289 288 286 286 285 284 283 281 278 274 270 265 262 260 260 259 259 255 255 254 249 250 258 253 248 242
305 301 301 304 305 306 307 308 308 305 304 304 302 299 299 296 290 289 288 289 290 289 286 284 281 279 276 272 268 263 260 258 258 257 256 251 252 252 247 246 255 253 246
310 310 309 310 310 309 307 307 307 306 305 302 299 299 299 297 295 291 287 282 279 278 278 276 276 275 275 276 272 265 263 259 256 256 255 254 250 250 250 245 245 251 252
313 311 310 307 306 306 305 304 301 301 299 296 296 294 292 297 299 300 300 296 288 285 281 279 278 276 276 277 275 271 263 260 257 254 254 251 251 248 248 246 245 243 245
311 310 309 309 308 306 304 303 302 296 295 302 306 289 303 301 292 295 295 291 290 291 289 287 284 281 281 281 279 270 262 253 255 252 252 253 248 247 245 245 246 247 243
312 310 309 308 309 309 310 308 306 297 304 306 301 302 309 300 292 293 295 293 288 287 290 291 291 292 293 290 286 281 274 268 258 255 248 249 250 246 243 243 246 246 246
309 309 310 314 314 314 312 310 300 303 306 304 302 305 304 303 303 303 301 300 299 294 292 292 291 292 295 293 290 283 275 270 265 258 256 251 248 248 245 242 241 245 244
315 316 316 315 312 310 306 290 290 304 302 301 302 305 309 307 305 303 303 302 301 301 298 298 297 294 291 288 285 282 272 270 267 263 254 250 250 247 245 243 242 242 245
317 317 314 311 308 306 305 295 296 303 308 303 309 314 312 309 306 304 305 304 305 304 300 298 297 296 293 286 278 274 268 262 264 263 258 250 244 242 240 237 244 240 244
320 319 317 315 312 306 306 301 306 305 305 309 314 316 313 310 307 305 305 304 303 302 300 302 298 295 289 285 278 268 261 256 257 260 259 253 243 240 242 238 236 237 237
324 322 320 316 310 309 306 310 304 303 304 305 312 313 312 307 307 307 306 306 305 303 300 302 300 296 292 285 277 265 258 253 251 255 257 253 246 243 243 244 243 238 234
327 324 319 313 310 305 303 300 302 301 298 301 310 312 311 309 311 311 308 307 305 303 300 302 300 297 293 285 276 264 253 245 245 248 255 255 246 243 245 248 246 242 238
327 323 317 311 310 305 298 298 297 300 297 304 310 310 310 310 312 310 309 307 306 304 303 302 300 295 293 284 270 259 254 247 242 238 241 247 247 244 243 247 248 247 227
327 323 318 317 309 302 293 291 299 297 303 306 309 311 312 314 313 312 311 309 307 307 305 302 299 295 291 283 267 258 236 248 242 239 241 242 246 243 244 243 250 252 248
325 323 320 316 309 305 293 297 298 303 308 310 310 312 315 316 315 315 312 311 310 309 307 305 301 295 289 281 258 253 253 240 245 237 242 244 242 244 243 246 248 249 245
324 323 317 312 307 293 297 302 302 305 310 310 313 315 318 319 319 318 314 314 313 312 308 304 298 294 293 285 253 245 242 254 253 248 241 244 241 244 243 243 246 245 225
321 320 314 309 305 303 302 302 306 310 310 315 316 318 320 323 325 321 319 318 316 312 308 302 294 287 284 284 268 246 243 248 241 246 241 237 240 242 244 244 240 230 222
317 314 311 310 310 308 305 307 309 310 316 316 317 320 325 329 327 321 321 322 319 320 314 306 293 286 282 279 275 262 249 237 239 252 248 238 235 238 241 241 240 222 203
314 313 314 316 315 313 312 310 313 318 318 319 321 327 330 331 327 324 326 325 325 324 323 313 300 289 284 280 272 261 253 259 251 252 245 239 234 231 237 237 237 227 224
312 314 314 315 315 314 314 316 318 319 320 323 327 332 332 332 329 328 330 331 333 332 331 327 321 301 289 288 277 263 249 245 246 253 243 237 237 231 230 231 233 230 228